Location: Adamstown South Public School
(32.9318°S, 151.7012°E)
Time: 20:50:37
(UTC+00:00)

Meteor 2-4 Rocket - Pass Details

Date: 07 June 2020
Orbit: 799 x 908 km, 81.2° (Epoch: 05 July)

Event Time Altitude Azimuth Distance (km) Brightness Sun altitude
Rises 07:58:01 0° 179° (S) 3,463 6.7 -13.3°
Reaches altitude 10° 08:00:40 10° 171° (S) 2,502 5.9 -13.9°
Maximum altitude 08:05:56 39° 103° (ESE) 1,242 4.1 -14.9°
Drops below altitude 10° 08:11:01 10° 34° (NE) 2,410 5.9 -15.9°
Sets 08:13:31 0° 27° (NNE) 3,322 6.7 -16.4°
